Linda — OJML — position and weather

sailwx.info

Track history (hours):
 
Tides and Currents Weather Stations Pressure Air Temp Water Temp Dewpoint Dewpoint Depression Visibility Wind Speed Wind Dir Waves Ship Positions

Linda

Last reported at 2014-Jul-24 21:33 UTC. Time now 2014-Jul-24 21:40 UTC.
Position N 51°15' E 003°49'.

Length 141 m; draft 7.4 m.

Type: Ship (hazmat cat A). MMSI: 230984000.

Date/timePositionNaut miles runAvg speedWind from/ knotsBaromVisibWave heightAir tempDewpointWater temp
2014-Jul-24 21:33N 51°15' E 003°49'5 5.3
2014-Jul-24 20:33N 51°10' E 003°47'0 0.0
2014-Jul-24 19:32N 51°10' E 003°47'0 0.0
2014-Jul-24 18:32N 51°10' E 003°47'0 0.0
2014-Jul-24 17:32N 51°10' E 003°47'0 0.0
2014-Jul-24 16:32N 51°10' E 003°47'0 0.0
2014-Jul-24 15:32N 51°10' E 003°47'0 0.0
2014-Jul-24 14:32N 51°10' E 003°47'0 0.0
2014-Jul-24 13:32N 51°10' E 003°47'0 0.0
2014-Jul-24 12:32N 51°10' E 003°47'0 0.0
2014-Jul-24 11:26N 51°10' E 003°47'0 0.0
2014-Jul-24 10:32N 51°10' E 003°47'0 0.0
2014-Jul-24 09:32N 51°10' E 003°47'0 0.0
2014-Jul-24 08:32N 51°10' E 003°47'0 0.0
2014-Jul-24 07:32N 51°10' E 003°47'0 0.0
2014-Jul-24 06:32N 51°10' E 003°47'0 0.0
2014-Jul-24 05:32N 51°10' E 003°47'0 0.0
2014-Jul-24 04:32N 51°10' E 003°47'2 2.3
2014-Jul-24 03:34N 51°12' E 003°48'7 7.2
2014-Jul-24 02:34N 51°19' E 003°50'1 1.4
2014-Jul-24 01:34N 51°20' E 003°49'1 0.6
2014-Jul-24 00:33N 51°21' E 003°48'8 8.2
2014-Jul-23 23:34N 51°26' E 003°39'1312.6
2014-Jul-23 22:33N 51°24' E 003°19'1817.6
2014-Jul-23 21:33N 51°22' E 002°51'1615.9
2014-Jul-23 20:33N 51°21' E 002°26'1515.2
2014-Jul-23 19:33N 51°23' E 002°02'1515.1
2014-Jul-23 18:33N 51°29' E 001°39'1413.8
2014-Jul-23 17:33N 51°29' E 001°17'1515.2
2014-Jul-23 16:34N 51°29' E 000°53'6 5.1
2014-Jul-23 15:27N 51°26' E 000°44'0 0.0
2014-Jul-23 14:33N 51°26' E 000°44'0 0.0
2014-Jul-23 13:33N 51°26' E 000°44'0 0.0
2014-Jul-23 12:33N 51°26' E 000°44'0 0.0
2014-Jul-23 11:30N 51°26' E 000°44'0 0.0
2014-Jul-23 10:33N 51°26' E 000°44'0 0.0
2014-Jul-23 09:33N 51°26' E 000°44'0 0.0
2014-Jul-23 08:33N 51°26' E 000°44'0 0.0
2014-Jul-23 07:31N 51°26' E 000°44'5 5.7
2014-Jul-23 06:34N 51°29' E 000°52'1616.2
2014-Jul-23 05:33N 51°29' E 001°18'1110.7
2014-Jul-23 04:33N 51°30' E 001°35'1515.2
2014-Jul-23 03:33N 51°44' E 001°44'1615.7
2014-Jul-23 02:33N 51°60' E 001°46'1515.3
2014-Jul-23 01:33N 52°15' E 001°50'1515.2
2014-Jul-23 00:33N 52°30' E 001°54'1514.8
2014-Jul-22 23:34N 52°45' E 001°55'1514.6
2014-Jul-22 22:33N 52°55' E 001°38'1413.7
2014-Jul-22 21:33N 53°06' E 001°24'1414.3
2014-Jul-22 20:33N 53°19' E 001°12'1414.4
2014-Jul-22 19:33N 53°31' E 000°60'1414.2
2014-Jul-22 18:33N 53°43' E 000°47'1414.4
2014-Jul-22 17:33N 53°53' E 000°30'1514.5
2014-Jul-22 16:33N 54°04' E 000°13'1515.1
2014-Jul-22 15:33N 54°15' W 000°05'1515.4
2014-Jul-22 14:33N 54°26' W 000°23'1615.4
2014-Jul-22 13:32N 54°35' W 000°44'1212.7
2014-Jul-22 12:33N 54°40' W 001°05'4 3.5
2014-Jul-22 11:19N 54°36' W 001°09'0 0.0
2014-Jul-22 10:19N 54°36' W 001°09'0 0.0
2014-Jul-22 09:22N 54°36' W 001°09'0 0.0
2014-Jul-22 08:16N 54°36' W 001°09'0 0.0
2014-Jul-22 06:25N 54°36' W 001°09'0 0.0
2014-Jul-22 05:25N 54°36' W 001°09'4 3.1
2014-Jul-22 04:10N 54°40' W 001°08'5 8.6
2014-Jul-22 03:33N 54°43' W 001°01'1812.4
2014-Jul-22 02:03N 54°51' W 000°31'612.4
2014-Jul-22 01:33N 54°54' W 000°22'1312.8
2014-Jul-22 00:33N 54°59' W 000°02'1513.2
2014-Jul-21 23:25N 55°05' E 000°22'1213.6
2014-Jul-21 22:33N 55°10' E 000°40'1413.5
2014-Jul-21 21:33N 55°17' E 001°02'33013.7
2014-Jul-20 21:24N 57°40' E 009°60'1315.6
2014-Jul-20 20:33N 57°44' E 010°23'1514.9
2014-Jul-20 19:33N 57°45' E 010°51'1616.1
2014-Jul-20 18:33N 57°34' E 011°13'1515.3
2014-Jul-20 17:33N 57°22' E 011°30'1615.7
2014-Jul-20 16:33N 57°07' E 011°40'1615.5
2014-Jul-20 15:33N 56°52' E 011°50'1615.8
2014-Jul-20 14:33N 56°38' E 011°58'1615.6
2014-Jul-20 13:33N 56°24' E 012°12'1616.4
2014-Jul-20 12:33N 56°10' E 012°29'1716.5
2014-Jul-20 11:33N 55°56' E 012°43'1515.4
2014-Jul-20 10:33N 55°41' E 012°41'1212.2
2014-Jul-20 09:33N 55°29' E 012°42'1212.4
2014-Jul-20 08:33N 55°17' E 012°48'1616.1
2014-Jul-20 07:33N 55°15' E 013°17'1616.4
2014-Jul-20 06:33N 55°14' E 013°45'1716.7
2014-Jul-20 05:33N 55°13' E 014°15'1717.3
2014-Jul-20 04:34N 55°26' E 014°36'1817.8
2014-Jul-20 03:33N 55°27' E 015°08'1817.8
2014-Jul-20 02:33N 55°28' E 015°39'1817.6
2014-Jul-20 01:33N 55°29' E 016°10'1817.8
2014-Jul-20 00:33N 55°30' E 016°41'1817.8
2014-Jul-19 23:33N 55°32' E 017°13'1817.8
2014-Jul-19 22:33N 55°33' E 017°44'1818.3
2014-Jul-19 21:33N 55°35' E 018°16'1818.3
2014-Jul-19 20:33N 55°37' E 018°49'1818.2
2014-Jul-19 19:33N 55°39' E 019°21'1817.9
2014-Jul-19 18:33N 55°41' E 019°52'1817.8
2014-Jul-19 17:33N 55°43' E 020°23'1817.5
2014-Jul-19 16:33N 55°44' E 020°54'9 8.9
2014-Jul-19 15:33N 55°40' E 021°09'2 1.4
2014-Jul-19 14:26N 55°39' E 021°10'0 0.0
2014-Jul-19 13:32N 55°39' E 021°10'0 0.0
2014-Jul-19 12:33N 55°39' E 021°10'5 4.7
2014-Jul-19 11:33N 55°43' E 021°06'1110.8
2014-Jul-19 10:33N 55°52' E 020°57'1817.8
2014-Jul-19 09:33N 56°10' E 020°51'1817.7
2014-Jul-19 08:33N 56°27' E 020°44'1817.8
2014-Jul-19 07:33N 56°45' E 020°40'1817.7
2014-Jul-19 06:33N 57°02' E 020°36'1817.7
2014-Jul-19 05:33N 57°20' E 020°31'155 3.6
2014-Jul-17 10:30N 59°37' E 022°50'1515.2
2014-Jul-17 09:33N 59°40' E 023°19'1514.9
2014-Jul-17 08:33N 59°43' E 023°47'1514.3
2014-Jul-17 07:29N 59°46' E 024°17'1814.5
2014-Jul-17 06:17N 59°50' E 024°51'5514.6
2014-Jul-17 02:32N 60°01' E 026°37'25 0.8
2014-Jul-15 20:27N 59°53' E 025°51'2116.7
2014-Jul-15 19:11N 60°01' E 025°11'914.9
2014-Jul-15 18:33N 60°10' E 025°13'2 0.2
2014-Jul-15 05:19N 60°13' E 025°12'1212.3
2014-Jul-15 04:18N 60°01' E 025°06'5614.7
2014-Jul-15 00:30N 59°34' E 023°28'  
Track history (hours):
 
Tides and Currents Weather Stations Pressure Air Temp Water Temp Dewpoint Dewpoint Depression Visibility Wind Speed Wind Dir Waves Ship Positions

Linda

Last reported at 2014-Jul-24 21:33 UTC. Time now 2014-Jul-24 21:40 UTC.
Position N 51°15' E 003°49'.

Length 141 m; draft 7.4 m.

Type: Ship (hazmat cat A). MMSI: 230984000.

Date/timePositionNaut miles runAvg speedWind from/ knotsBaromVisibWave heightAir tempDewpointWater temp
2014-Jul-24 21:33N 51°15' E 003°49'5 5.3
2014-Jul-24 20:33N 51°10' E 003°47'0 0.0
2014-Jul-24 19:32N 51°10' E 003°47'0 0.0
2014-Jul-24 18:32N 51°10' E 003°47'0 0.0
2014-Jul-24 17:32N 51°10' E 003°47'0 0.0
2014-Jul-24 16:32N 51°10' E 003°47'0 0.0
2014-Jul-24 15:32N 51°10' E 003°47'0 0.0
2014-Jul-24 14:32N 51°10' E 003°47'0 0.0
2014-Jul-24 13:32N 51°10' E 003°47'0 0.0
2014-Jul-24 12:32N 51°10' E 003°47'0 0.0
2014-Jul-24 11:26N 51°10' E 003°47'0 0.0
2014-Jul-24 10:32N 51°10' E 003°47'0 0.0
2014-Jul-24 09:32N 51°10' E 003°47'0 0.0
2014-Jul-24 08:32N 51°10' E 003°47'0 0.0
2014-Jul-24 07:32N 51°10' E 003°47'0 0.0
2014-Jul-24 06:32N 51°10' E 003°47'0 0.0
2014-Jul-24 05:32N 51°10' E 003°47'0 0.0
2014-Jul-24 04:32N 51°10' E 003°47'2 2.3
2014-Jul-24 03:34N 51°12' E 003°48'7 7.2
2014-Jul-24 02:34N 51°19' E 003°50'1 1.4
2014-Jul-24 01:34N 51°20' E 003°49'1 0.6
2014-Jul-24 00:33N 51°21' E 003°48'8 8.2
2014-Jul-23 23:34N 51°26' E 003°39'1312.6
2014-Jul-23 22:33N 51°24' E 003°19'1817.6
2014-Jul-23 21:33N 51°22' E 002°51'1615.9
2014-Jul-23 20:33N 51°21' E 002°26'1515.2
2014-Jul-23 19:33N 51°23' E 002°02'1515.1
2014-Jul-23 18:33N 51°29' E 001°39'1413.8
2014-Jul-23 17:33N 51°29' E 001°17'1515.2
2014-Jul-23 16:34N 51°29' E 000°53'6 5.1
2014-Jul-23 15:27N 51°26' E 000°44'0 0.0
2014-Jul-23 14:33N 51°26' E 000°44'0 0.0
2014-Jul-23 13:33N 51°26' E 000°44'0 0.0
2014-Jul-23 12:33N 51°26' E 000°44'0 0.0
2014-Jul-23 11:30N 51°26' E 000°44'0 0.0
2014-Jul-23 10:33N 51°26' E 000°44'0 0.0
2014-Jul-23 09:33N 51°26' E 000°44'0 0.0
2014-Jul-23 08:33N 51°26' E 000°44'0 0.0
2014-Jul-23 07:31N 51°26' E 000°44'5 5.7
2014-Jul-23 06:34N 51°29' E 000°52'1616.2
2014-Jul-23 05:33N 51°29' E 001°18'1110.7
2014-Jul-23 04:33N 51°30' E 001°35'1515.2
2014-Jul-23 03:33N 51°44' E 001°44'1615.7
2014-Jul-23 02:33N 51°60' E 001°46'1515.3
2014-Jul-23 01:33N 52°15' E 001°50'1515.2
2014-Jul-23 00:33N 52°30' E 001°54'1514.8
2014-Jul-22 23:34N 52°45' E 001°55'1514.6
2014-Jul-22 22:33N 52°55' E 001°38'1413.7
2014-Jul-22 21:33N 53°06' E 001°24'1414.3
2014-Jul-22 20:33N 53°19' E 001°12'1414.4
2014-Jul-22 19:33N 53°31' E 000°60'1414.2
2014-Jul-22 18:33N 53°43' E 000°47'1414.4
2014-Jul-22 17:33N 53°53' E 000°30'1514.5
2014-Jul-22 16:33N 54°04' E 000°13'1515.1
2014-Jul-22 15:33N 54°15' W 000°05'1515.4
2014-Jul-22 14:33N 54°26' W 000°23'1615.4
2014-Jul-22 13:32N 54°35' W 000°44'1212.7
2014-Jul-22 12:33N 54°40' W 001°05'4 3.5
2014-Jul-22 11:19N 54°36' W 001°09'0 0.0
2014-Jul-22 10:19N 54°36' W 001°09'0 0.0
2014-Jul-22 09:22N 54°36' W 001°09'0 0.0
2014-Jul-22 08:16N 54°36' W 001°09'0 0.0
2014-Jul-22 06:25N 54°36' W 001°09'0 0.0
2014-Jul-22 05:25N 54°36' W 001°09'4 3.1
2014-Jul-22 04:10N 54°40' W 001°08'5 8.6
2014-Jul-22 03:33N 54°43' W 001°01'1812.4
2014-Jul-22 02:03N 54°51' W 000°31'612.4
2014-Jul-22 01:33N 54°54' W 000°22'1312.8
2014-Jul-22 00:33N 54°59' W 000°02'1513.2
2014-Jul-21 23:25N 55°05' E 000°22'1213.6
2014-Jul-21 22:33N 55°10' E 000°40'1413.5
2014-Jul-21 21:33N 55°17' E 001°02'33013.7
2014-Jul-20 21:24N 57°40' E 009°60'1315.6
2014-Jul-20 20:33N 57°44' E 010°23'1514.9
2014-Jul-20 19:33N 57°45' E 010°51'1616.1
2014-Jul-20 18:33N 57°34' E 011°13'1515.3
2014-Jul-20 17:33N 57°22' E 011°30'1615.7
2014-Jul-20 16:33N 57°07' E 011°40'1615.5
2014-Jul-20 15:33N 56°52' E 011°50'1615.8
2014-Jul-20 14:33N 56°38' E 011°58'1615.6
2014-Jul-20 13:33N 56°24' E 012°12'1616.4
2014-Jul-20 12:33N 56°10' E 012°29'1716.5
2014-Jul-20 11:33N 55°56' E 012°43'1515.4
2014-Jul-20 10:33N 55°41' E 012°41'1212.2
2014-Jul-20 09:33N 55°29' E 012°42'1212.4
2014-Jul-20 08:33N 55°17' E 012°48'1616.1
2014-Jul-20 07:33N 55°15' E 013°17'1616.4
2014-Jul-20 06:33N 55°14' E 013°45'1716.7
2014-Jul-20 05:33N 55°13' E 014°15'1717.3
2014-Jul-20 04:34N 55°26' E 014°36'1817.8
2014-Jul-20 03:33N 55°27' E 015°08'1817.8
2014-Jul-20 02:33N 55°28' E 015°39'1817.6
2014-Jul-20 01:33N 55°29' E 016°10'1817.8
2014-Jul-20 00:33N 55°30' E 016°41'1817.8
2014-Jul-19 23:33N 55°32' E 017°13'1817.8
2014-Jul-19 22:33N 55°33' E 017°44'1818.3
2014-Jul-19 21:33N 55°35' E 018°16'1818.3
2014-Jul-19 20:33N 55°37' E 018°49'1818.2
2014-Jul-19 19:33N 55°39' E 019°21'1817.9
2014-Jul-19 18:33N 55°41' E 019°52'1817.8
2014-Jul-19 17:33N 55°43' E 020°23'1817.5
2014-Jul-19 16:33N 55°44' E 020°54'9 8.9
2014-Jul-19 15:33N 55°40' E 021°09'2 1.4
2014-Jul-19 14:26N 55°39' E 021°10'0 0.0
2014-Jul-19 13:32N 55°39' E 021°10'0 0.0
2014-Jul-19 12:33N 55°39' E 021°10'5 4.7
2014-Jul-19 11:33N 55°43' E 021°06'1110.8
2014-Jul-19 10:33N 55°52' E 020°57'1817.8
2014-Jul-19 09:33N 56°10' E 020°51'1817.7
2014-Jul-19 08:33N 56°27' E 020°44'1817.8
2014-Jul-19 07:33N 56°45' E 020°40'1817.7
2014-Jul-19 06:33N 57°02' E 020°36'1817.7
2014-Jul-19 05:33N 57°20' E 020°31'155 3.6
2014-Jul-17 10:30N 59°37' E 022°50'1515.2
2014-Jul-17 09:33N 59°40' E 023°19'1514.9
2014-Jul-17 08:33N 59°43' E 023°47'1514.3
2014-Jul-17 07:29N 59°46' E 024°17'1814.5
2014-Jul-17 06:17N 59°50' E 024°51'5514.6
2014-Jul-17 02:32N 60°01' E 026°37'25 0.8
2014-Jul-15 20:27N 59°53' E 025°51'2116.7
2014-Jul-15 19:11N 60°01' E 025°11'914.9
2014-Jul-15 18:33N 60°10' E 025°13'2 0.2
2014-Jul-15 05:19N 60°13' E 025°12'1212.3
2014-Jul-15 04:18N 60°01' E 025°06'5614.7
2014-Jul-15 00:30N 59°34' E 023°28'  

Dump ship's entire track history